Time,TemperatureF,DewpointF,PressureIn,WindDirection,WindDirectionDegrees,WindSpeedMPH,WindSpeedGustMPH,Humidity,HourlyPrecipIn,Conditions,Clouds,dailyrainin,SoftwareType,DateUTC
2015-05-22 00:02:00,54.9,44.1,30.20,SW,232,0.0,2.0,67,0.00,,,0.00,meteohub,2015-05-22 05:02:00,
2015-05-22 00:07:00,54.9,44.1,30.20,WSW,248,0.0,1.0,67,0.00,,,0.00,meteohub,2015-05-22 05:07:00,
2015-05-22 00:12:00,55.0,44.2,30.20,WSW,250,0.0,1.0,67,0.00,,,0.00,meteohub,2015-05-22 05:12:00,
2015-05-22 00:17:00,55.0,44.2,30.20,WSW,247,0.0,2.0,67,0.00,,,0.00,meteohub,2015-05-22 05:17:00,
2015-05-22 00:22:00,55.0,44.2,30.20,WSW,246,0.0,2.0,67,0.00,,,0.00,meteohub,2015-05-22 05:22:00,
2015-05-22 00:27:00,55.0,43.9,30.20,WSW,246,0.0,2.0,66,0.00,,,0.00,meteohub,2015-05-22 05:27:00,
2015-05-22 00:37:00,54.9,44.1,30.20,WSW,246,0.0,1.0,67,0.00,,,0.00,meteohub,2015-05-22 05:37:00,
2015-05-22 00:47:00,54.7,43.5,30.20,WSW,246,0.0,2.0,66,0.00,,,0.00,meteohub,2015-05-22 05:47:00,
2015-05-22 00:52:00,54.7,43.9,30.20,WSW,246,0.0,2.0,67,0.00,,,0.00,meteohub,2015-05-22 05:52:00,
2015-05-22 00:57:00,54.5,43.7,30.21,WSW,246,0.0,1.0,67,0.00,,,0.00,meteohub,2015-05-22 05:57:00,
2015-05-22 01:02:00,54.3,43.5,30.21,WSW,246,0.0,1.0,67,0.00,,,0.00,meteohub,2015-05-22 06:02:00,
2015-05-22 01:07:00,54.1,43.9,30.21,West,273,0.0,1.0,68,0.00,,,0.00,meteohub,2015-05-22 06:07:00,
2015-05-22 01:12:00,54.1,43.3,30.21,SW,227,0.0,2.0,67,0.00,,,0.00,meteohub,2015-05-22 06:12:00,
2015-05-22 01:17:00,54.1,43.3,30.21,SSW,212,2.0,5.0,67,0.00,,,0.00,meteohub,2015-05-22 06:17:00,
2015-05-22 01:22:00,54.3,43.5,30.21,SW,227,5.0,5.0,67,0.00,,,0.00,meteohub,2015-05-22 06:22:00,
2015-05-22 01:27:00,54.3,43.5,30.21,SW,225,1.0,6.0,67,0.00,,,0.00,meteohub,2015-05-22 06:27:00,
2015-05-22 01:32:00,54.1,43.9,30.21,West,262,0.0,6.0,68,0.00,,,0.00,meteohub,2015-05-22 06:32:00,
2015-05-22 01:37:00,54.0,44.1,30.21,WSW,238,0.0,6.0,69,0.00,,,0.00,meteohub,2015-05-22 06:37:00,
2015-05-22 01:42:00,54.0,44.1,30.21,WSW,250,4.0,5.0,69,0.00,,,0.00,meteohub,2015-05-22 06:42:00,
2015-05-22 01:47:00,54.1,44.2,30.21,SW,217,3.0,5.0,69,0.00,,,0.00,meteohub,2015-05-22 06:47:00,
2015-05-22 01:52:00,54.1,44.2,30.21,WSW,254,0.0,5.0,69,0.00,,,0.00,meteohub,2015-05-22 06:52:00,
2015-05-22 01:57:00,54.1,44.2,30.21,SW,229,1.0,5.0,69,0.00,,,0.00,meteohub,2015-05-22 06:57:00,
2015-05-22 02:02:00,54.0,44.1,30.21,WSW,240,0.0,3.0,69,0.00,,,0.00,meteohub,2015-05-22 07:02:00,
2015-05-22 02:07:00,54.0,44.1,30.21,SW,230,1.0,3.0,69,0.00,,,0.00,meteohub,2015-05-22 07:07:00,
2015-05-22 02:12:00,54.0,44.1,30.21,WSW,244,1.0,3.0,69,0.00,,,0.00,meteohub,2015-05-22 07:12:00,
2015-05-22 02:17:00,53.8,44.2,30.21,WSW,245,1.0,3.0,70,0.00,,,0.00,meteohub,2015-05-22 07:17:00,
2015-05-22 02:22:00,53.6,44.1,30.20,West,259,0.0,3.0,70,0.00,,,0.00,meteohub,2015-05-22 07:22:00,
2015-05-22 02:27:00,53.4,43.9,30.20,WSW,246,1.0,3.0,70,0.00,,,0.00,meteohub,2015-05-22 07:27:00,
2015-05-22 02:32:00,53.4,43.9,30.20,WSW,247,1.0,3.0,70,0.00,,,0.00,meteohub,2015-05-22 07:32:00,
2015-05-22 02:37:00,53.4,43.9,30.21,WSW,248,1.0,2.0,70,0.00,,,0.00,meteohub,2015-05-22 07:37:00,
2015-05-22 02:42:00,53.8,43.9,30.20,SW,235,2.0,3.0,69,0.00,,,0.00,meteohub,2015-05-22 07:42:00,
2015-05-22 02:47:00,54.0,44.1,30.20,SW,234,1.0,3.0,69,0.00,,,0.00,meteohub,2015-05-22 07:47:00,
2015-05-22 02:52:00,54.0,43.7,30.21,WSW,238,0.0,3.0,68,0.00,,,0.00,meteohub,2015-05-22 07:52:00,
2015-05-22 02:57:00,54.0,43.7,30.20,WSW,254,0.0,3.0,68,0.00,,,0.00,meteohub,2015-05-22 07:57:00,
2015-05-22 03:02:00,53.8,43.5,30.20,WSW,257,0.0,3.0,68,0.00,,,0.00,meteohub,2015-05-22 08:02:00,
2015-05-22 03:07:00,53.8,43.9,30.20,WSW,257,0.0,3.0,69,0.00,,,0.00,meteohub,2015-05-22 08:07:00,
2015-05-22 03:12:00,53.4,43.5,30.19,WSW,257,0.0,3.0,69,0.00,,,0.00,meteohub,2015-05-22 08:12:00,
2015-05-22 03:17:00,53.4,43.5,30.19,WSW,257,0.0,2.0,69,0.00,,,0.00,meteohub,2015-05-22 08:17:00,
2015-05-22 03:22:00,53.1,43.5,30.19,WSW,257,2.0,2.0,70,0.00,,,0.00,meteohub,2015-05-22 08:22:00,
2015-05-22 03:27:00,52.9,43.3,30.19,WSW,257,3.0,3.0,70,0.00,,,0.00,meteohub,2015-05-22 08:27:00,
2015-05-22 03:32:00,53.1,43.2,30.19,West,262,4.0,4.0,69,0.00,,,0.00,meteohub,2015-05-22 08:32:00,
2015-05-22 03:37:00,53.2,43.3,30.19,West,262,2.0,4.0,69,0.00,,,0.00,meteohub,2015-05-22 08:37:00,
2015-05-22 03:42:00,53.2,43.3,30.19,WSW,257,1.0,4.0,69,0.00,,,0.00,meteohub,2015-05-22 08:42:00,
2015-05-22 03:47:00,53.2,43.0,30.19,West,259,1.0,4.0,68,0.00,,,0.00,meteohub,2015-05-22 08:47:00,
2015-05-22 03:52:00,53.1,43.2,30.19,WSW,255,0.0,4.0,69,0.00,,,0.00,meteohub,2015-05-22 08:52:00,
2015-05-22 03:57:00,52.5,43.0,30.19,WSW,256,0.0,4.0,70,0.00,,,0.00,meteohub,2015-05-22 08:57:00,
2015-05-22 04:02:00,52.3,43.2,30.19,WSW,255,0.0,2.0,71,0.00,,,0.00,meteohub,2015-05-22 09:02:00,
2015-05-22 04:07:00,52.2,43.0,30.19,WSW,255,0.0,2.0,71,0.00,,,0.00,meteohub,2015-05-22 09:07:00,
2015-05-22 04:12:00,52.2,43.0,30.19,WSW,255,1.0,2.0,71,0.00,,,0.00,meteohub,2015-05-22 09:12:00,
2015-05-22 04:17:00,52.0,42.8,30.19,WSW,255,0.0,2.0,71,0.00,,,0.00,meteohub,2015-05-22 09:17:00,
2015-05-22 04:22:00,51.6,43.0,30.19,WSW,255,0.0,2.0,72,0.00,,,0.00,meteohub,2015-05-22 09:22:00,
2015-05-22 04:27:00,51.4,42.8,30.19,WSW,255,0.0,2.0,72,0.00,,,0.00,meteohub,2015-05-22 09:27:00,
2015-05-22 04:32:00,51.4,42.8,30.19,WSW,255,0.0,1.0,72,0.00,,,0.00,meteohub,2015-05-22 09:32:00,
2015-05-22 04:37:00,51.4,43.2,30.19,WSW,255,0.0,1.0,73,0.00,,,0.00,meteohub,2015-05-22 09:37:00,
2015-05-22 04:42:00,51.4,43.2,30.19,WSW,255,0.0,1.0,73,0.00,,,0.00,meteohub,2015-05-22 09:42:00,
2015-05-22 04:47:00,51.4,42.8,30.20,WSW,254,0.0,1.0,72,0.00,,,0.00,meteohub,2015-05-22 09:47:00,
2015-05-22 04:52:00,50.7,42.4,30.20,WSW,244,0.0,2.0,73,0.00,,,0.00,meteohub,2015-05-22 09:52:00,
2015-05-22 04:57:00,50.0,42.4,30.20,WSW,244,1.0,3.0,75,0.00,,,0.00,meteohub,2015-05-22 09:57:00,
2015-05-22 05:02:00,49.6,42.8,30.21,WSW,244,0.0,3.0,77,0.00,,,0.00,meteohub,2015-05-22 10:02:00,
2015-05-22 05:07:00,49.6,42.8,30.20,WSW,244,0.0,3.0,77,0.00,,,0.00,meteohub,2015-05-22 10:07:00,
2015-05-22 05:12:00,49.6,42.8,30.20,WSW,244,0.0,2.0,77,0.00,,,0.00,meteohub,2015-05-22 10:12:00,
2015-05-22 05:18:00,49.8,43.0,30.20,WSW,244,0.0,1.0,77,0.00,,,0.00,meteohub,2015-05-22 10:18:00,
2015-05-22 05:23:00,49.8,43.0,30.20,WSW,244,0.0,0.0,77,0.00,,,0.00,meteohub,2015-05-22 10:23:00,
2015-05-22 05:28:00,50.0,42.8,30.21,WSW,244,0.0,1.0,76,0.00,,,0.00,meteohub,2015-05-22 10:28:00,
2015-05-22 05:33:00,49.6,42.8,30.21,WSW,244,0.0,1.0,77,0.00,,,0.00,meteohub,2015-05-22 10:33:00,
2015-05-22 05:38:00,49.5,42.6,30.21,WSW,244,0.0,2.0,77,0.00,,,0.00,meteohub,2015-05-22 10:38:00,
2015-05-22 05:43:00,49.5,42.6,30.20,WSW,244,0.0,2.0,77,0.00,,,0.00,meteohub,2015-05-22 10:43:00,
2015-05-22 05:48:00,49.6,42.8,30.20,WSW,244,0.0,2.0,77,0.00,,,0.00,meteohub,2015-05-22 10:48:00,
2015-05-22 05:53:00,49.8,43.0,30.20,WSW,244,0.0,1.0,77,0.00,,,0.00,meteohub,2015-05-22 10:53:00,
2015-05-22 05:58:00,50.2,43.0,30.20,WSW,244,0.0,0.0,76,0.00,,,0.00,meteohub,2015-05-22 10:58:00,
2015-05-22 06:03:00,50.2,43.0,30.20,WSW,244,0.0,0.0,76,0.00,,,0.00,meteohub,2015-05-22 11:03:00,
2015-05-22 06:08:00,49.6,42.4,30.20,WSW,246,0.0,0.0,76,0.00,,,0.00,meteohub,2015-05-22 11:08:00,
2015-05-22 06:13:00,49.6,42.8,30.20,WSW,246,0.0,0.0,77,0.00,,,0.00,meteohub,2015-05-22 11:13:00,
2015-05-22 06:18:00,49.8,43.0,30.20,WSW,246,0.0,0.0,77,0.00,,,0.00,meteohub,2015-05-22 11:18:00,
2015-05-22 06:23:00,49.8,43.0,30.20,WSW,246,0.0,0.0,77,0.00,,,0.00,meteohub,2015-05-22 11:23:00,
2015-05-22 06:28:00,50.2,43.3,30.19,WSW,246,0.0,0.0,77,0.00,,,0.00,meteohub,2015-05-22 11:28:00,
2015-05-22 06:34:00,50.4,43.2,30.20,WSW,246,0.0,0.0,76,0.00,,,0.00,meteohub,2015-05-22 11:34:00,
2015-05-22 06:39:00,50.0,43.2,30.20,WSW,246,0.0,0.0,77,0.00,,,0.00,meteohub,2015-05-22 11:39:00,
2015-05-22 06:44:00,49.8,43.5,30.21,WSW,246,0.0,0.0,79,0.00,,,0.00,meteohub,2015-05-22 11:44:00,
2015-05-22 06:49:00,49.8,43.5,30.21,WSW,246,0.0,0.0,79,0.00,,,0.00,meteohub,2015-05-22 11:49:00,
2015-05-22 06:54:00,50.0,43.7,30.20,WSW,246,0.0,0.0,79,0.00,,,0.00,meteohub,2015-05-22 11:54:00,
2015-05-22 06:59:00,49.8,43.5,30.21,WSW,246,0.0,0.0,79,0.00,,,0.00,meteohub,2015-05-22 11:59:00,
2015-05-22 07:04:00,49.5,43.9,30.21,WSW,246,0.0,2.0,81,0.00,,,0.00,meteohub,2015-05-22 12:04:00,
2015-05-22 07:09:00,49.3,44.4,30.21,WSW,246,0.0,2.0,83,0.00,,,0.00,meteohub,2015-05-22 12:09:00,
2015-05-22 07:14:00,48.9,44.6,30.21,WSW,246,0.0,2.0,85,0.00,,,0.00,meteohub,2015-05-22 12:14:00,
2015-05-22 07:19:00,49.3,45.3,30.21,WSW,246,0.0,2.0,86,0.00,,,0.00,meteohub,2015-05-22 12:19:00,
2015-05-22 07:24:00,49.6,45.9,30.21,WSW,246,0.0,0.0,87,0.00,,,0.00,meteohub,2015-05-22 12:24:00,
2015-05-22 07:29:00,50.5,46.8,30.21,WSW,246,0.0,0.0,87,0.00,,,0.00,meteohub,2015-05-22 12:29:00,
2015-05-22 07:34:00,51.4,47.7,30.21,WSW,246,0.0,0.0,87,0.00,,,0.00,meteohub,2015-05-22 12:34:00,
2015-05-22 07:39:00,52.3,48.0,30.21,WSW,246,0.0,0.0,85,0.00,,,0.00,meteohub,2015-05-22 12:39:00,
2015-05-22 07:45:00,53.2,48.6,30.21,WSW,246,0.0,0.0,84,0.00,,,0.00,meteohub,2015-05-22 12:45:00,
2015-05-22 07:50:00,54.1,48.4,30.21,WSW,246,0.0,0.0,81,0.00,,,0.00,meteohub,2015-05-22 12:50:00,
2015-05-22 07:55:00,54.9,48.6,30.21,WSW,246,0.0,0.0,79,0.00,,,0.00,meteohub,2015-05-22 12:55:00,
2015-05-22 08:00:00,55.6,48.2,30.21,West,269,0.0,0.0,76,0.00,,,0.00,meteohub,2015-05-22 13:00:00,
2015-05-22 08:05:00,55.9,47.1,30.21,West,269,0.0,1.0,72,0.00,,,0.00,meteohub,2015-05-22 13:05:00,
2015-05-22 08:10:00,56.5,47.1,30.21,West,269,0.0,2.0,71,0.00,,,0.00,meteohub,2015-05-22 13:10:00,
2015-05-22 08:15:00,57.0,47.3,30.22,West,269,0.0,2.0,70,0.00,,,0.00,meteohub,2015-05-22 13:15:00,
2015-05-22 08:20:00,57.6,47.5,30.22,West,269,0.0,0.0,69,0.00,,,0.00,meteohub,2015-05-22 13:20:00,
2015-05-22 08:25:00,57.9,47.5,30.22,West,269,0.0,1.0,68,0.00,,,0.00,meteohub,2015-05-22 13:25:00,
2015-05-22 08:30:00,58.3,47.8,30.22,West,279,0.0,1.0,68,0.00,,,0.00,meteohub,2015-05-22 13:30:00,
2015-05-22 08:35:00,58.6,47.7,30.22,West,279,0.0,1.0,67,0.00,,,0.00,meteohub,2015-05-22 13:35:00,
2015-05-22 08:41:00,58.8,47.5,30.22,NW,321,0.0,1.0,66,0.00,,,0.00,meteohub,2015-05-22 13:41:00,
2015-05-22 08:46:00,59.0,47.3,30.22,NW,321,0.0,1.0,65,0.00,,,0.00,meteohub,2015-05-22 13:46:00,
2015-05-22 08:51:00,59.5,47.3,30.22,NW,321,0.0,1.0,64,0.00,,,0.00,meteohub,2015-05-22 13:51:00,
2015-05-22 08:56:00,59.7,47.1,30.22,NW,319,0.0,1.0,63,0.00,,,0.00,meteohub,2015-05-22 13:56:00,
2015-05-22 09:01:00,60.3,47.1,30.23,NW,319,0.0,1.0,62,0.00,,,0.00,meteohub,2015-05-22 14:01:00,
2015-05-22 09:06:00,60.6,47.5,30.23,NW,319,0.0,1.0,62,0.00,,,0.00,meteohub,2015-05-22 14:06:00,
2015-05-22 09:11:00,61.2,47.7,30.23,NW,319,0.0,0.0,61,0.00,,,0.00,meteohub,2015-05-22 14:11:00,
2015-05-22 09:16:00,61.3,47.3,30.23,NW,319,0.0,1.0,60,0.00,,,0.00,meteohub,2015-05-22 14:16:00,
2015-05-22 09:21:00,61.5,47.5,30.23,NW,319,1.0,1.0,60,0.00,,,0.00,meteohub,2015-05-22 14:21:00,
2015-05-22 09:27:00,61.7,49.5,30.23,NW,319,0.0,1.0,64,0.00,,,0.00,meteohub,2015-05-22 14:27:00,
2015-05-22 09:32:00,61.7,49.8,30.23,NW,325,2.0,2.0,65,0.00,,,0.00,meteohub,2015-05-22 14:32:00,
2015-05-22 09:37:00,61.3,49.1,30.23,SE,127,1.0,4.0,64,0.00,,,0.00,meteohub,2015-05-22 14:37:00,
2015-05-22 09:42:00,61.3,49.1,30.23,ESE,122,0.0,5.0,64,0.00,,,0.00,meteohub,2015-05-22 14:42:00,
2015-05-22 09:47:00,61.3,49.1,30.23,SE,142,0.0,5.0,64,0.00,,,0.00,meteohub,2015-05-22 14:47:00,
2015-05-22 09:52:00,61.3,48.6,30.23,SSE,161,0.0,5.0,63,0.00,,,0.00,meteohub,2015-05-22 14:52:00,
2015-05-22 09:57:00,61.5,47.5,30.22,ESE,117,1.0,4.0,60,0.00,,,0.00,meteohub,2015-05-22 14:57:00,
2015-05-22 10:02:00,61.5,47.5,30.22,ESE,109,2.0,5.0,60,0.00,,,0.00,meteohub,2015-05-22 15:02:00,
2015-05-22 10:07:00,61.9,46.9,30.23,ESE,103,2.0,5.0,58,0.00,,,0.00,meteohub,2015-05-22 15:07:00,
2015-05-22 10:12:00,62.1,47.1,30.23,SSE,158,0.0,5.0,58,0.00,,,0.00,meteohub,2015-05-22 15:12:00,
2015-05-22 10:17:00,62.2,46.8,30.23,ESE,107,2.0,5.0,57,0.00,,,0.00,meteohub,2015-05-22 15:17:00,
2015-05-22 10:22:00,62.8,48.2,30.23,SE,132,2.0,5.0,59,0.00,,,0.00,meteohub,2015-05-22 15:22:00,
2015-05-22 10:27:00,62.8,47.8,30.23,ESE,122,2.0,6.0,58,0.00,,,0.00,meteohub,2015-05-22 15:27:00,
2015-05-22 10:32:00,63.0,48.0,30.22,SE,132,0.0,6.0,58,0.00,,,0.00,meteohub,2015-05-22 15:32:00,
2015-05-22 10:37:00,63.1,48.6,30.23,SSE,152,4.0,6.0,59,0.00,,,0.00,meteohub,2015-05-22 15:37:00,
2015-05-22 10:42:00,63.1,47.7,30.22,ESE,122,4.0,6.0,57,0.00,,,0.00,meteohub,2015-05-22 15:42:00,
2015-05-22 10:47:00,63.3,46.9,30.22,ESE,115,2.0,7.0,55,0.00,,,0.00,meteohub,2015-05-22 15:47:00,
2015-05-22 10:52:00,63.5,46.6,30.22,SSE,153,1.0,7.0,54,0.00,,,0.00,meteohub,2015-05-22 15:52:00,
2015-05-22 10:57:00,63.5,46.6,30.22,ESE,120,5.0,7.0,54,0.00,,,0.00,meteohub,2015-05-22 15:57:00,
2015-05-22 11:02:00,63.5,46.6,30.22,ESE,116,4.0,6.0,54,0.00,,,0.00,meteohub,2015-05-22 16:02:00,
2015-05-22 11:07:00,63.7,46.2,30.22,SE,146,7.0,7.0,53,0.00,,,0.00,meteohub,2015-05-22 16:07:00,
2015-05-22 11:12:00,63.5,45.5,30.22,SSE,153,8.0,9.0,52,0.00,,,0.00,meteohub,2015-05-22 16:12:00,
2015-05-22 11:17:00,63.3,45.9,30.22,SE,125,7.0,12.0,53,0.00,,,0.00,meteohub,2015-05-22 16:17:00,
2015-05-22 11:22:00,63.3,45.9,30.22,SE,144,9.0,12.0,53,0.00,,,0.00,meteohub,2015-05-22 16:22:00,
2015-05-22 11:27:00,63.5,50.2,30.22,SSW,211,4.0,12.0,62,0.00,,,0.00,meteohub,2015-05-22 16:27:00,
2015-05-22 11:32:00,62.8,50.9,30.22,SSW,210,7.0,10.0,65,0.00,,,0.00,meteohub,2015-05-22 16:32:00,
2015-05-22 11:37:00,62.4,50.9,30.22,SSW,200,7.0,10.0,66,0.00,,,0.00,meteohub,2015-05-22 16:37:00,
2015-05-22 11:42:00,62.1,51.4,30.22,South,175,7.0,9.0,68,0.00,,,0.00,meteohub,2015-05-22 16:42:00,
2015-05-22 11:47:00,61.9,51.3,30.22,SSW,202,6.0,11.0,68,0.00,,,0.00,meteohub,2015-05-22 16:47:00,
2015-05-22 11:52:00,61.5,50.5,30.22,South,178,6.0,11.0,67,0.00,,,0.00,meteohub,2015-05-22 16:52:00,
2015-05-22 11:57:00,61.3,50.4,30.22,SSW,196,6.0,11.0,67,0.00,,,0.00,meteohub,2015-05-22 16:57:00,
2015-05-22 12:02:00,61.2,49.6,30.22,South,178,7.0,11.0,66,0.00,,,0.00,meteohub,2015-05-22 17:02:00,
2015-05-22 12:07:00,61.2,48.9,30.23,South,187,6.0,11.0,64,0.00,,,0.00,meteohub,2015-05-22 17:07:00,
2015-05-22 12:12:00,61.0,49.1,30.23,South,185,8.0,10.0,65,0.00,,,0.00,meteohub,2015-05-22 17:12:00,
2015-05-22 12:17:00,61.0,49.1,30.23,SSW,205,8.0,10.0,65,0.00,,,0.00,meteohub,2015-05-22 17:17:00,
2015-05-22 12:22:00,61.2,50.2,30.23,South,180,6.0,11.0,67,0.00,,,0.00,meteohub,2015-05-22 17:22:00,
2015-05-22 12:27:00,61.3,49.8,30.23,SSW,196,3.0,11.0,66,0.00,,,0.00,meteohub,2015-05-22 17:27:00,
2015-05-22 12:32:00,61.5,48.4,30.22,SSE,160,4.0,11.0,62,0.00,,,0.00,meteohub,2015-05-22 17:32:00,
2015-05-22 12:37:00,61.9,48.2,30.22,SSW,210,3.0,9.0,61,0.00,,,0.00,meteohub,2015-05-22 17:37:00,
2015-05-22 12:42:00,61.9,48.2,30.22,SE,130,4.0,8.0,61,0.00,,,0.00,meteohub,2015-05-22 17:42:00,
2015-05-22 12:47:00,61.9,48.2,30.22,SSW,194,3.0,7.0,61,0.00,,,0.00,meteohub,2015-05-22 17:47:00,
2015-05-22 12:52:00,61.7,49.5,30.22,ESE,113,4.0,7.0,64,0.00,,,0.00,meteohub,2015-05-22 17:52:00,
2015-05-22 12:57:00,61.7,48.9,30.22,SSW,212,5.0,7.0,63,0.00,,,0.00,meteohub,2015-05-22 17:57:00,
2015-05-22 13:02:00,61.5,48.0,30.23,SSW,205,7.0,7.0,61,0.00,,,0.00,meteohub,2015-05-22 18:02:00,
2015-05-22 13:07:00,61.3,46.4,30.23,SSE,167,4.0,10.0,58,0.00,,,0.00,meteohub,2015-05-22 18:07:00,
2015-05-22 13:12:00,61.3,47.8,30.23,South,175,6.0,10.0,61,0.00,,,0.00,meteohub,2015-05-22 18:12:00,
2015-05-22 13:17:00,61.2,48.0,30.23,SSW,207,2.0,10.0,62,0.00,,,0.00,meteohub,2015-05-22 18:17:00,
2015-05-22 13:22:00,60.8,48.6,30.23,SSW,207,5.0,9.0,64,0.00,,,0.00,meteohub,2015-05-22 18:22:00,
2015-05-22 13:27:00,60.6,47.5,30.23,South,186,6.0,7.0,62,0.00,,,0.00,meteohub,2015-05-22 18:27:00,
2015-05-22 13:32:00,61.0,48.4,30.23,SSW,192,4.0,9.0,63,0.00,,,0.00,meteohub,2015-05-22 18:32:00,
2015-05-22 13:37:00,61.2,47.1,30.23,South,176,7.0,9.0,60,0.00,,,0.00,meteohub,2015-05-22 18:37:00,
2015-05-22 13:42:00,61.3,46.9,30.23,SW,219,8.0,9.0,59,0.00,,,0.00,meteohub,2015-05-22 18:42:00,
2015-05-22 13:47:00,61.5,47.5,30.23,SSW,196,5.0,11.0,60,0.00,,,0.00,meteohub,2015-05-22 18:47:00,
2015-05-22 13:52:00,61.9,46.4,30.23,SE,139,8.0,11.0,57,0.00,,,0.00,meteohub,2015-05-22 18:52:00,
2015-05-22 13:57:00,62.1,46.2,30.22,SSE,162,2.0,11.0,56,0.00,,,0.00,meteohub,2015-05-22 18:57:00,
2015-05-22 14:02:00,62.1,46.2,30.22,South,189,6.0,11.0,56,0.00,,,0.00,meteohub,2015-05-22 19:02:00,
2015-05-22 14:07:00,62.2,45.9,30.22,South,173,6.0,11.0,55,0.00,,,0.00,meteohub,2015-05-22 19:07:00,
2015-05-22 14:12:00,62.6,46.2,30.22,SSE,153,1.0,10.0,55,0.00,,,0.00,meteohub,2015-05-22 19:12:00,
2015-05-22 14:17:00,62.8,46.4,30.22,SSW,197,6.0,11.0,55,0.00,,,0.00,meteohub,2015-05-22 19:17:00,
2015-05-22 14:22:00,63.0,46.0,30.23,SSW,202,4.0,11.0,54,0.00,,,0.00,meteohub,2015-05-22 19:22:00,
2015-05-22 14:27:00,63.0,45.5,30.22,SSE,159,4.0,10.0,53,0.00,,,0.00,meteohub,2015-05-22 19:27:00,
2015-05-22 14:32:00,63.0,45.5,30.22,SE,134,6.0,11.0,53,0.00,,,0.00,meteohub,2015-05-22 19:32:00,
2015-05-22 14:37:00,63.0,46.0,30.21,ESE,105,6.0,11.0,54,0.00,,,0.00,meteohub,2015-05-22 19:37:00,
2015-05-22 14:42:00,63.0,46.6,30.22,SE,140,1.0,11.0,55,0.00,,,0.00,meteohub,2015-05-22 19:42:00,
2015-05-22 14:47:00,63.1,46.2,30.21,ESE,111,4.0,11.0,54,0.00,,,0.00,meteohub,2015-05-22 19:47:00,
2015-05-22 14:52:00,63.3,46.4,30.21,ESE,109,2.0,7.0,54,0.00,,,0.00,meteohub,2015-05-22 19:52:00,
2015-05-22 14:57:00,63.7,45.7,30.21,SE,146,6.0,7.0,52,0.00,,,0.00,meteohub,2015-05-22 19:57:00,
2015-05-22 15:02:00,63.9,45.9,30.22,ESE,115,7.0,9.0,52,0.00,,,0.00,meteohub,2015-05-22 20:02:00,
2015-05-22 15:07:00,64.2,46.8,30.22,SSE,156,10.0,12.0,53,0.00,,,0.00,meteohub,2015-05-22 20:07:00,
2015-05-22 15:12:00,64.4,46.4,30.22,ESE,119,8.0,13.0,52,0.00,,,0.00,meteohub,2015-05-22 20:12:00,
2015-05-22 15:17:00,64.2,46.8,30.21,ESE,110,6.0,13.0,53,0.00,,,0.00,meteohub,2015-05-22 20:17:00,
2015-05-22 15:22:00,64.6,46.0,30.21,SE,137,11.0,16.0,51,0.00,,,0.00,meteohub,2015-05-22 20:22:00,
2015-05-22 15:27:00,64.6,47.1,30.21,SSE,153,9.0,17.0,53,0.00,,,0.00,meteohub,2015-05-22 20:27:00,
2015-05-22 15:32:00,65.1,46.6,30.20,SE,136,2.0,17.0,51,0.00,,,0.00,meteohub,2015-05-22 20:32:00,
2015-05-22 15:37:00,64.9,45.9,30.20,ESE,120,9.0,17.0,50,0.00,,,0.00,meteohub,2015-05-22 20:37:00,
2015-05-22 15:42:00,64.9,46.4,30.20,South,171,6.0,15.0,51,0.00,,,0.00,meteohub,2015-05-22 20:42:00,
2015-05-22 15:47:00,64.9,46.9,30.20,SE,138,5.0,15.0,52,0.00,,,0.00,meteohub,2015-05-22 20:47:00,
2015-05-22 15:52:00,64.6,45.5,30.19,SE,141,8.0,16.0,50,0.00,,,0.00,meteohub,2015-05-22 20:52:00,